Location: Lecco
(45.8566°N, 9.3977°E)
Time: 13:22:13
(UTC+02:00)

Explorer 11/Cluster Stage 4 - Pass Details

Date: 14 August 2020
Orbit: 467 x 1258 km, 28.8° (Epoch: 24 September)

Event Time Altitude Azimuth Distance (km) Brightness Sun altitude
Rises 00:02:10 0° 240° (WSW) 4,115 10.2 -26.9°
Enters shadow 00:05:33 10° 227° (SW) 3,238 9.5 -27.1°
Reaches altitude 10° 00:05:42 10° 226° (SW) 3,203 - -27.1°
Maximum altitude 00:11:40 23° 179° (S) 2,406 - -27.5°
Drops below altitude 10° 00:17:35 10° 132° (SE) 3,168 - -27.8°
Sets 00:21:04 0° 119° (ESE) 4,060 - -28.0°
